Temperature
15 14 14 14 14 14 14 13 13 13 13 13 13 13 12 12 12 12 12 12 12 12 12 12 11 11 11 11 11 11 11 11 11 11 11 11 11 11 11 11 11 11 11
14 14 14 14 14 14 13 13 13 13 13 13 12 12 12 12 12 12 12 12 12 12 11 11 11 11 11 11 11 11 11 11 10 10 10 10 10 11 11 11 10 10 10
14 14 14 14 13 13 13 13 13 13 13 12 12 12 12 12 11 11 11 11 11 11 11 11 11 11 11 11 11 10 10 10 10 10 10 10 10 10 10 10 10 10 10
14 13 13 13 13 13 12 12 12 12 12 12 12 12 11 11 11 11 11 11 11 11 11 11 11 11 10 10 10 10 10 10 10 10 9 10 9 10 10 10 10 10 10
13 13 13 13 12 12 12 12 12 12 11 11 11 11 11 11 11 11 11 11 11 10 10 10 10 10 10 10 10 10 10 9 9 9 9 9 9 9 9 9 9 9 9
13 13 13 12 12 12 12 11 11 11 11 11 11 11 11 11 11 11 10 10 10 10 10 10 10 10 10 10 10 9 9 9 9 9 9 9 9 9 9 9 9 9 9
13 12 12 12 12 11 11 11 11 11 11 11 11 11 11 10 10 10 10 10 10 10 10 10 9 9 9 9 9 9 9 9 9 9 9 9 8 8 8 8 8 8 8
13 12 12 11 11 11 11 11 10 10 10 10 10 10 10 10 10 10 10 10 9 9 9 9 9 9 9 9 9 9 9 9 9 8 8 8 8 8 8 8 8 8 8
12 12 11 11 11 10 10 10 10 10 10 10 9 10 10 10 10 10 9 9 9 9 9 9 9 9 8 8 8 8 8 8 8 8 8 8 8 8 8 8 8 8 7
11 11 11 10 10 10 10 10 10 9 9 9 9 9 9 9 9 9 9 9 9 9 9 8 8 8 8 8 8 8 7 8 8 8 8 8 8 8 8 7 7 7 7
11 11 10 10 10 10 9 9 9 9 9 8 8 8 8 8 8 8 8 8 8 8 8 8 8 8 8 7 7 7 7 7 7 7 7 7 7 7 7 7 7 7 7
11 10 10 10 9 9 9 9 8 8 8 8 8 8 8 8 8 8 8 7 7 7 7 7 7 7 7 7 7 7 7 7 7 7 7 7 6 7 7 7 7 7 6
10 10 10 10 9 9 9 8 8 8 8 7 7 7 7 7 7 7 7 7 7 7 7 7 7 6 6 7 6 6 6 6 6 6 6 6 6 6 6 6 6 6 6
10 10 10 9 9 9 8 8 8 7 7 7 7 7 7 7 7 7 7 7 7 7 6 6 6 6 6 6 6 6 6 6 6 5 5 5 5 5 5 5 5 6 6
10 9 9 9 8 8 8 8 7 7 7 7 7 7 7 7 7 6 6 6 6 6 6 6 6 6 6 6 6 6 5 5 5 5 5 5 5 5 5 5 5 5 5
9 9 8 8 8 8 7 7 7 7 7 7 7 6 6 6 6 6 6 6 5 5 5 5 5 5 5 5 5 5 5 5 5 4 4 4 4 4 4 4 4 4 4
8 8 8 8 7 7 7 7 7 6 6 6 6 6 6 6 6 5 5 5 5 5 5 5 4 5 4 4 4 4 4 4 4 4 4 4 3 3 3 3 3 4 4
8 8 8 8 7 7 7 6 6 6 6 6 6 6 5 5 5 5 5 5 4 4 4 4 4 4 4 4 4 3 3 3 3 3 3 3 3 3 3 3 3 3 3
8 7 7 7 7 7 6 6 6 5 5 5 5 5 5 5 5 5 4 4 4 4 4 4 3 3 3 3 3 3 3 3 3 3 3 3 3 3 3 3 3 2 2
7 7 7 7 6 6 6 6 5 5 5 5 5 5 5 4 4 4 4 4 4 4 3 3 3 3 3 3 3 3 2 2 2 2 2 2 2 2 2 2 2 2 2
7 6 6 6 6 6 5 5 5 5 5 4 4 4 4 4 4 4 4 3 3 3 3 3 3 3 2 2 2 2 2 2 2 2 2 2 2 2 2 2 2 2 2
6 6 6 5 5 5 5 5 5 4 4 4 4 4 4 4 3 3 3 3 3 3 3 3 2 2 2 2 2 2 2 2 2 2 2 2 2 2 2 2 2 1 1
6 6 5 5 5 5 5 4 4 4 4 4 3 3 3 3 3 3 3 3 3 2 2 2 2 2 2 2 2 2 2 1 1 1 1 1 1 1 1 1 1 1 1
6 5 5 5 4 4 4 4 4 3 3 3 3 3 3 3 2 2 2 2 2 2 2 2 2 2 2 2 2 1 1 1 1 1 1 1 1 1 1 1 1 1 1
5 5 5 4 4 4 4 4 3 3 3 3 2 2 2 2 2 2 2 2 2 2 1 1 1 1 1 1 1 1 1 1 1 1 1 1 1 1 0 0 0 0 0
5 4 4 4 4 4 3 3 3 3 2 2 2 2 2 1 1 1 1 1 1 1 1 1 1 1 1 1 1 0 0 0 0 0 0 0 0 0 0 0 -0 -0 -0
Wind_Speed
3 2 1 2 2 2 1 2 2 2 2 2 2 2 1 1 1 1 0 0 0 1 1 1 1 1 1 1 1 1 1 1 2 4 3 3 3 2 1 2 2 3 4
3 3 1 1 1 1 0 0 2 2 2 1 2 2 1 1 1 1 1 0 0 1 1 2 2 1 1 1 1 1 1 2 2 3 3 2 2 2 1 1 1 2 4
2 2 2 2 1 1 1 0 1 1 1 1 1 2 1 1 1 0 1 1 1 1 1 1 2 1 2 2 2 1 2 2 2 2 3 2 2 2 2 2 1 1 2
3 2 2 2 1 1 1 1 1 1 1 1 1 1 2 2 1 1 1 1 1 2 2 1 1 0 1 2 2 2 2 2 2 2 2 2 2 2 1 1 2 1 2
3 3 2 2 2 1 1 0 1 0 0 1 1 1 1 2 1 1 1 2 2 2 2 2 1 1 2 2 2 2 2 2 2 2 2 2 2 2 2 2 2 2 2
4 3 3 2 2 1 1 0 0 0 0 0 0 1 1 1 1 1 2 2 2 2 2 2 2 1 3 3 4 4 3 2 2 2 2 2 3 3 2 2 2 2 3
4 3 3 3 2 1 1 1 0 0 0 0 0 0 1 2 2 1 2 2 2 2 2 1 2 2 3 2 3 4 4 5 4 3 3 3 4 3 2 3 2 3 4
3 4 3 2 2 2 1 1 1 0 0 0 1 1 0 2 2 1 2 2 3 2 2 1 1 1 3 3 3 3 3 4 4 4 3 4 3 3 2 3 4 4 3
3 3 3 3 3 2 2 1 1 0 0 1 1 1 0 1 2 1 1 2 2 3 2 2 1 1 4 5 3 3 4 4 4 4 5 5 5 6 4 2 2 2 4
2 2 2 2 2 2 2 1 0 0 1 1 1 1 1 1 1 1 1 1 2 3 2 2 2 3 4 4 2 2 4 5 4 5 5 5 5 5 4 2 2 2 3
2 2 2 2 2 2 2 1 0 0 0 1 1 1 0 1 1 0 0 0 2 3 3 2 2 4 5 5 4 3 5 5 4 4 4 4 3 3 2 2 1 2 3
3 2 2 2 2 2 2 1 0 0 1 1 1 1 1 0 1 1 2 2 3 2 3 3 3 4 5 5 4 5 7 6 3 3 3 3 3 3 3 3 3 4 4
3 2 2 2 2 2 2 2 1 1 1 1 1 1 1 1 1 2 2 4 5 3 3 5 6 6 5 4 5 5 4 3 2 3 3 3 3 3 3 3 3 3 3
2 2 1 2 2 1 1 1 1 1 1 1 1 1 1 0 1 1 2 3 4 4 4 5 6 6 4 4 4 3 3 3 3 3 3 3 3 2 2 2 3 2 2
2 2 2 2 2 1 1 1 2 2 2 2 1 1 1 1 1 1 1 2 2 3 4 3 2 2 2 2 2 2 2 2 3 3 3 3 3 3 3 2 2 1 2
2 2 2 2 2 2 2 1 1 2 4 4 3 2 2 2 2 2 3 4 4 4 3 3 3 3 3 3 3 3 2 3 3 3 3 3 3 3 3 2 2 2 3
2 2 2 2 2 2 2 2 2 2 3 4 5 5 4 3 3 4 4 5 5 3 2 3 3 3 3 3 3 3 3 3 3 3 4 4 3 3 3 3 2 2 3
2 2 2 2 2 2 2 2 2 2 2 2 4 6 5 4 4 5 5 3 3 2 2 3 4 3 3 3 3 3 3 3 3 3 3 3 3 3 3 3 3 3 3
2 2 1 1 1 1 1 1 2 2 2 1 1 2 4 4 5 5 2 2 3 3 3 3 3 3 3 3 3 4 3 3 3 3 3 4 4 4 4 4 3 4 4
2 2 2 1 1 1 1 1 1 1 1 2 2 1 1 1 2 2 2 3 3 3 3 3 3 3 3 4 4 4 4 4 4 3 4 4 4 4 4 4 4 4 4
2 2 3 2 1 1 1 1 1 1 1 1 1 1 1 2 2 2 2 2 2 3 3 3 3 3 3 4 4 5 5 5 4 4 4 4 4 4 4 4 4 4 4
1 1 2 2 2 1 1 1 0 1 1 1 1 1 1 1 1 2 2 2 2 2 3 3 3 3 4 4 4 4 5 5 4 4 4 4 4 4 4 3 3 4 3
1 1 1 1 1 1 1 0 0 1 1 1 1 1 0 1 1 2 2 2 2 2 3 3 3 4 4 4 4 4 4 5 5 4 4 4 4 4 4 4 4 4 4
1 1 1 1 1 1 1 0 0 1 1 1 1 1 0 1 2 2 2 3 3 3 3 4 4 5 5 5 5 5 5 5 6 5 5 4 4 4 4 4 4 4 4
1 1 1 1 1 1 1 1 0 1 1 1 1 1 1 1 2 2 2 2 3 3 4 5 5 5 6 7 6 6 7 7 7 6 4 4 4 4 4 4 3 3 3
1 1 1 1 1 1 1 1 0 0 0 1 1 1 1 2 2 2 2 2 3 3 4 4 6 7 8 7 7 7 7 7 7 6 5 3 3 4 3 3 3 3 3
Wind_Direction
156 146 153 165 162 166 177 163 150 149 156 149 150 151 149 138 137 113 128 360 37 349 337 333 316 328 346 318 316 307 301 291 283 302 315 325 324 324 272 242 232 204 199
159 147 143 148 124 142 150 125 134 141 164 154 142 132 121 118 123 136 195 261 274 309 306 315 308 328 319 298 284 269 276 266 260 285 302 311 308 305 300 284 249 221 191
145 139 132 105 107 152 120 49 99 124 145 158 145 142 136 128 107 246 213 232 262 268 260 276 296 328 311 314 313 299 287 285 272 263 285 294 298 309 322 315 305 281 241
152 156 147 136 124 93 97 101 109 103 144 163 170 171 157 132 99 356 318 264 273 280 282 268 289 328 302 302 304 297 293 291 288 288 292 301 297 296 325 316 310 305 286
168 163 148 133 119 97 76 47 87 107 234 177 173 146 130 121 84 1 302 299 287 293 296 289 290 324 339 340 333 320 306 286 287 285 285 299 302 321 297 280 286 291 286
163 148 139 135 129 123 115 86 328 201 220 59 298 140 122 127 110 27 336 282 265 265 283 302 314 315 350 343 341 343 333 303 291 274 271 277 279 275 277 280 286 296 287
143 135 136 138 144 144 131 105 237 266 12 25 268 232 165 155 130 62 328 302 273 263 266 298 309 332 339 316 308 317 323 314 301 283 278 276 279 280 274 275 271 266 265
143 148 153 156 156 159 156 165 203 198 94 281 280 299 250 165 128 73 316 283 276 288 298 310 311 321 330 326 302 303 299 303 291 284 273 279 279 283 269 263 260 272 275
144 145 154 162 164 172 183 188 153 357 285 267 251 264 254 157 127 106 27 297 302 305 311 319 316 294 326 335 329 310 302 297 301 294 292 296 293 297 294 296 286 275 279
136 137 147 162 171 174 162 156 157 189 245 264 267 252 186 157 140 130 111 291 303 300 305 305 307 315 323 329 303 293 292 293 307 310 302 297 287 293 295 260 248 256 268
125 124 132 146 159 155 134 130 156 205 270 274 267 278 187 135 85 71 76 273 299 302 298 299 298 318 324 320 310 282 286 297 293 287 290 294 297 294 284 273 257 244 255
126 136 151 136 158 162 138 149 161 260 259 261 279 315 333 97 88 335 316 311 320 300 302 301 297 305 301 301 295 295 303 310 302 295 295 294 294 293 291 284 272 263 250
139 149 161 144 126 148 158 165 178 219 235 251 262 266 295 356 20 4 326 318 327 317 304 314 311 305 304 290 287 297 303 303 305 301 292 285 285 287 293 291 283 275 272
168 171 167 143 129 119 161 164 174 193 215 253 258 258 268 322 30 6 323 312 323 318 313 312 314 306 296 290 297 293 282 284 288 279 287 291 297 302 298 293 280 270 275
187 180 166 144 145 172 169 193 190 194 187 204 238 243 266 258 279 308 303 290 294 295 313 313 311 314 306 302 296 289 289 293 288 284 286 295 305 300 293 294 284 285 266
195 189 171 161 175 190 186 222 232 209 191 189 195 214 247 255 295 295 294 298 302 311 320 298 292 286 279 285 288 288 288 288 290 291 287 286 287 287 289 291 285 267 263
208 194 178 181 189 201 197 198 235 259 222 213 216 223 233 259 274 276 284 293 293 295 278 276 279 280 278 281 288 290 290 290 292 292 287 288 291 292 289 285 285 282 275
211 188 186 187 191 194 199 211 219 225 236 245 231 228 236 253 268 270 276 294 286 263 260 271 278 280 280 280 283 284 288 293 293 291 287 287 287 287 285 279 269 269 272
194 180 178 178 176 175 191 221 228 235 234 232 243 228 233 255 270 267 252 242 261 270 271 273 278 280 282 283 285 287 286 282 282 284 286 285 283 280 273 266 261 266 266
175 164 165 178 184 186 200 216 230 236 233 239 241 233 222 272 285 273 241 250 261 268 277 280 278 278 281 283 282 281 282 281 282 280 284 285 279 273 266 262 261 263 259
163 174 185 190 184 185 216 227 228 256 268 267 268 245 192 239 251 260 252 250 261 273 282 288 286 283 278 278 279 278 280 280 279 281 284 285 284 280 271 259 256 256 259
156 165 180 185 176 181 211 216 198 267 275 278 290 287 247 284 288 288 280 278 278 274 272 274 279 273 272 275 278 279 281 283 284 286 287 286 283 280 275 264 260 261 258
174 181 188 185 163 156 169 186 199 251 269 282 290 314 274 285 297 302 303 301 294 292 299 293 283 284 289 293 291 282 278 279 283 287 285 281 277 275 274 264 258 259 255
163 168 178 175 157 159 172 215 255 276 297 312 325 348 327 296 303 307 312 318 316 318 316 307 297 296 299 304 307 302 297 295 297 289 279 274 272 271 274 270 262 254 248
167 164 175 186 188 188 178 185 248 298 321 330 336 345 333 316 308 310 315 317 322 322 323 323 322 321 316 314 316 316 312 307 303 301 289 274 271 269 268 264 259 254 249
158 159 182 185 187 182 174 187 213 265 287 298 310 323 313 312 313 320 326 325 326 323 324 326 326 327 324 322 321 321 322 321 317 310 304 283 273 268 262 259 255 247 242
Height
1516 1517 1518 1518 1519 1520 1521 1521 1522 1522 1523 1524 1524 1524 1525 1525 1525 1525 1526 1526 1526 1526 1526 1526 1526 1526 1525 1524 1524 1524 1523 1523 1521 1520 1520 1519 1518 1518 1517 1516 1516 1515 1515
1515 1515 1516 1516 1517 1518 1518 1519 1520 1520 1521 1522 1522 1522 1523 1523 1523 1524 1524 1524 1524 1524 1524 1524 1524 1524 1523 1522 1522 1521 1521 1520 1519 1517 1516 1516 1516 1515 1514 1514 1513 1513 1513
1513 1513 1514 1514 1514 1515 1516 1516 1517 1518 1519 1519 1520 1520 1521 1521 1521 1522 1522 1522 1522 1522 1522 1522 1522 1521 1521 1520 1519 1519 1518 1517 1516 1515 1514 1513 1513 1512 1512 1511 1511 1511 1511
1511 1511 1512 1512 1512 1513 1513 1514 1515 1515 1516 1517 1517 1518 1518 1519 1519 1520 1520 1520 1520 1520 1520 1520 1519 1519 1518 1518 1517 1516 1515 1514 1513 1512 1511 1511 1510 1510 1509 1509 1508 1508 1508
1509 1509 1510 1510 1510 1511 1511 1512 1512 1513 1514 1514 1515 1515 1516 1516 1517 1517 1517 1518 1518 1518 1518 1517 1517 1516 1516 1515 1515 1514 1513 1512 1511 1510 1509 1508 1507 1507 1506 1506 1505 1505 1505
1507 1507 1508 1508 1508 1509 1509 1509 1510 1510 1511 1512 1512 1513 1513 1514 1514 1514 1514 1515 1515 1515 1515 1515 1514 1514 1513 1512 1512 1511 1510 1509 1508 1507 1506 1505 1504 1504 1504 1503 1503 1502 1501
1505 1505 1505 1506 1506 1506 1507 1507 1507 1507 1508 1509 1509 1510 1510 1511 1511 1511 1511 1512 1512 1512 1512 1511 1511 1511 1510 1509 1508 1507 1507 1506 1506 1505 1503 1502 1501 1501 1501 1500 1499 1499 1498
1502 1502 1503 1503 1504 1504 1504 1504 1505 1505 1505 1505 1506 1507 1507 1507 1508 1508 1508 1509 1509 1509 1508 1508 1508 1507 1506 1506 1505 1503 1503 1502 1501 1500 1500 1499 1498 1498 1497 1497 1496 1495 1494
1499 1500 1500 1501 1501 1502 1502 1502 1502 1502 1502 1503 1503 1503 1504 1504 1504 1505 1505 1505 1505 1505 1505 1505 1504 1504 1503 1502 1501 1500 1499 1498 1498 1497 1496 1495 1494 1494 1493 1492 1491 1491 1489
1497 1497 1498 1498 1499 1499 1499 1499 1500 1500 1500 1500 1500 1501 1502 1501 1501 1501 1502 1502 1502 1502 1501 1501 1500 1500 1499 1499 1498 1496 1495 1494 1493 1492 1491 1490 1490 1489 1489 1488 1488 1487 1486
1494 1495 1495 1496 1496 1496 1497 1497 1497 1497 1497 1497 1498 1498 1498 1499 1498 1498 1499 1498 1498 1498 1498 1497 1497 1496 1496 1495 1494 1493 1492 1491 1490 1489 1487 1486 1485 1484 1484 1483 1483 1483 1482
1491 1492 1493 1493 1493 1494 1494 1494 1495 1495 1495 1495 1494 1494 1495 1496 1496 1495 1496 1495 1495 1495 1494 1493 1493 1492 1492 1491 1490 1489 1489 1488 1486 1485 1483 1482 1481 1480 1479 1479 1479 1478 1478
1489 1489 1490 1490 1490 1491 1491 1491 1492 1492 1492 1492 1492 1492 1492 1492 1492 1492 1492 1492 1491 1491 1490 1490 1489 1489 1488 1487 1486 1485 1484 1483 1482 1481 1479 1478 1477 1476 1475 1475 1474 1474 1473
1486 1486 1487 1487 1487 1488 1488 1489 1489 1489 1489 1489 1489 1489 1489 1489 1489 1489 1488 1488 1488 1487 1486 1486 1485 1485 1484 1483 1482 1481 1480 1480 1479 1477 1476 1475 1474 1473 1471 1471 1470 1469 1468
1483 1483 1484 1484 1484 1484 1485 1486 1486 1486 1486 1486 1486 1486 1486 1486 1486 1486 1485 1484 1484 1483 1482 1482 1481 1480 1479 1479 1478 1477 1476 1476 1475 1474 1472 1471 1470 1468 1467 1467 1466 1465 1464
1479 1480 1480 1481 1481 1481 1482 1482 1483 1484 1484 1484 1484 1484 1483 1483 1483 1483 1482 1482 1481 1480 1479 1478 1477 1476 1475 1474 1474 1473 1472 1472 1471 1470 1469 1467 1466 1465 1464 1463 1462 1461 1460
1476 1477 1477 1477 1478 1478 1479 1479 1479 1480 1480 1480 1480 1480 1480 1480 1479 1479 1479 1478 1477 1476 1475 1474 1473 1472 1471 1471 1470 1469 1468 1467 1466 1465 1464 1463 1462 1461 1460 1459 1458 1457 1456
1473 1474 1474 1474 1475 1475 1476 1476 1476 1476 1477 1476 1477 1477 1477 1476 1476 1475 1475 1474 1473 1472 1471 1470 1469 1468 1467 1466 1465 1465 1464 1463 1462 1461 1460 1459 1458 1457 1456 1455 1454 1453 1452
1470 1470 1471 1471 1472 1472 1473 1473 1473 1473 1473 1473 1473 1473 1473 1473 1472 1472 1471 1470 1469 1468 1467 1466 1465 1464 1463 1462 1461 1460 1459 1458 1457 1456 1455 1454 1453 1452 1451 1450 1449 1449 1448
1466 1467 1468 1468 1469 1469 1469 1470 1470 1470 1470 1470 1470 1469 1469 1469 1467 1467 1467 1466 1465 1464 1463 1462 1461 1460 1459 1458 1457 1456 1455 1454 1453 1452 1450 1449 1448 1447 1446 1445 1445 1444 1443
1463 1464 1464 1465 1465 1466 1466 1466 1466 1466 1466 1466 1466 1466 1466 1465 1464 1464 1463 1462 1461 1460 1459 1458 1457 1456 1455 1454 1452 1451 1450 1449 1448 1447 1445 1444 1443 1442 1441 1440 1440 1439 1439
1460 1461 1461 1462 1462 1463 1463 1463 1463 1463 1463 1462 1462 1462 1462 1461 1460 1460 1459 1458 1457 1456 1455 1454 1453 1451 1450 1449 1448 1446 1445 1444 1443 1441 1440 1439 1438 1437 1436 1435 1434 1434 1434
1457 1458 1458 1459 1460 1460 1460 1460 1460 1460 1460 1459 1459 1458 1457 1457 1456 1456 1455 1454 1453 1452 1451 1450 1448 1447 1446 1445 1444 1442 1440 1438 1437 1436 1435 1434 1433 1432 1431 1430 1430 1429 1429
1455 1455 1455 1456 1456 1457 1457 1457 1457 1457 1456 1456 1455 1455 1454 1453 1453 1452 1451 1450 1449 1448 1446 1445 1444 1442 1441 1440 1438 1437 1435 1434 1433 1432 1430 1429 1428 1427 1426 1425 1425 1425 1425
1452 1452 1453 1453 1454 1454 1454 1454 1454 1454 1453 1453 1452 1452 1451 1450 1449 1448 1447 1446 1445 1443 1442 1441 1439 1438 1436 1435 1433 1431 1430 1429 1428 1427 1425 1424 1423 1422 1421 1421 1420 1420 1420
1449 1450 1450 1451 1451 1451 1451 1451 1451 1451 1450 1450 1449 1449 1448 1447 1446 1445 1443 1442 1440 1439 1437 1436 1435 1433 1431 1430 1428 1427 1425 1424 1423 1422 1420 1419 1418 1417 1417 1417 1416 1416 1416